Weather History for Culiacan, Mexico

Change the Weather History Date:

Wednesday, December 19, 2012

  Actual Average Record
Temperature  
Mean Temperature 67 °F -  
Max Temperature 80 °F 80 °F 89 °F (2000)
Min Temperature 54 °F 54 °F 32 °F (2002)
Cooling Degree Days 2    
Growing Degree Days 17 (Base 50)    
Moisture  
Dew Point 57 °F    
Average Humidity 70    
Maximum Humidity 98    
Minimum Humidity 38    
Precipitation  
Precipitation 0.00 in - - ()
Sea Level Pressure  
Sea Level Pressure 29.97 in    
Wind  
Wind Speed 1 mph ()    
Max Wind Speed 8 mph    
Max Gust Speed -    
Visibility 9.6 miles    
Events      
Averages and records for this station are not official NWS values.
T = Trace of Precipitation, MM = Missing Value Source: Averaged Metar Reports

Daily Weather History Graph

Daily Weather History Graph

Search for Another Location

Airport:

Trip Planner

Search our weather history database for the weather conditions in past years. The results will help you decide how hot, cold, wet, or windy it might be!

Date:

Astronomy

Dec. 19, 2012 Rise Set
Actual Time 6:49 AM MST 5:25 PM MST
Civil Twilight 6:24 AM MST 5:50 PM MST
Nautical Twilight 5:55 AM MST 6:18 PM MST
Astronomical Twilight 5:27 AM MST 6:46 PM MST
Moon 11:40 AM MST (12/19) No Moon Set
Length of Visible Light 11h 26m
Length of Day
10h 36m
Waxing Crescent, 45% of the Moon is Illuminated
Dec 19
Waxing Crescent
Dec 19
First Quarter
Dec 28
Full
Jan 4
Last Quarter
Jan 11
New

Hourly Weather History & Observations

Time (MST) Temp. Heat Index Dew Point Humidity Pressure Visibility Wind Dir Wind Speed Gust Speed Precip Events Conditions
1:44 AM 59.0 °F - 57.2 °F 94% 29.95 in 10.0 mi Calm Calm - N/A   Scattered Clouds
2:44 AM 59.0 °F - 55.4 °F 88% 29.95 in 10.0 mi North 5.8 mph - N/A   Scattered Clouds
4:50 AM 55 °F - 54 °F 98% 29.89 in 6 mi SSW 2.2 mph - -  
5:49 AM 59.0 °F - 55.4 °F 88% 29.94 in 10.0 mi Calm Calm - N/A   Scattered Clouds
6:41 AM 59.0 °F - 55.4 °F 88% 29.96 in 10.0 mi Calm Calm - N/A   Scattered Clouds
7:43 AM 59.0 °F - 55.4 °F 88% 29.97 in 10.0 mi Calm Calm - N/A   Scattered Clouds
7:50 AM 57 °F - 57 °F 98% 29.98 in 10 mi NNW 2.2 mph - -   Haze
8:43 AM 64.4 °F - 55.4 °F 73% 30.00 in 10.0 mi NNE 5.8 mph - N/A   Clear
9:45 AM 68.0 °F - 59.0 °F 73% 30.00 in 10.0 mi Calm Calm - N/A   Partly Cloudy
10:40 AM 71.6 °F - 50.0 °F 46% 29.99 in 10.0 mi Calm Calm - N/A   Scattered Clouds
10:45 AM 73 °F - 58 °F 50% 30.06 in 10 mi SW 2.2 mph - -  
11:43 AM 75.2 °F - 51.8 °F 44% 29.98 in 10.0 mi Calm Calm - N/A   Scattered Clouds
12:44 PM 77.0 °F - 60.8 °F 57% 29.99 in 10.0 mi Calm Calm - N/A   Scattered Clouds
1:43 PM 78.8 °F - 62.6 °F 57% 29.90 in 10.0 mi Calm Calm - N/A   Partly Cloudy
1:45 PM - - 58 °F % 30.01 in 10 mi SW 2.2 mph - -  
2:00 PM - - - %  in 10 mi SW 2.2 mph - -  
2:44 PM 82.4 °F 82.0 °F 57.2 °F 42% 29.92 in 10.0 mi Calm Calm - N/A   Scattered Clouds
3:45 PM 82.4 °F 82.0 °F 57.2 °F 42% 29.92 in 10.0 mi SSW 8.1 mph - N/A   Partly Cloudy
4:45 PM 79 °F - 58 °F 38% 30.00 in 10 mi SW 2.2 mph - -  
4:52 PM 78.8 °F - 59.0 °F 51% 29.93 in 10.0 mi Calm Calm - N/A   Partly Cloudy
5:43 PM 73.4 °F - 59.0 °F 61% 29.92 in 10.0 mi Calm Calm - N/A   Scattered Clouds
6:43 PM 71.6 °F - 57.2 °F 60% 29.95 in 10.0 mi NW 4.6 mph - N/A   Scattered Clouds
7:40 PM 67 °F - 62 °F 81% 30.03 in 6 mi Calm Calm - -  
7:40 PM 68.0 °F - 59.0 °F 73% 29.94 in 10.0 mi Calm Calm - N/A   Partly Cloudy
8:50 PM 66.2 °F - 59.0 °F 78% 29.97 in 10.0 mi Calm Calm - N/A   Partly Cloudy
10:40 PM 63 °F - 61 °F 92% 30.06 in 6 mi Calm Calm - -  
10:45 PM 64.4 °F - 59.0 °F 83% 29.97 in 10.0 mi Calm Calm - N/A   Scattered Clouds